Weather History for KFGN - October, 2012

Change the Weather History Date:

Monday, October 15, 2012

  Actual Average Record
Temperature  
Mean Temperature 44 °F -  
Max Temperature 51 °F 45 °F 62 °F (1996)
Min Temperature 37 °F 35 °F 26 °F (2002)
Degree Days  
Heating Degree Days 21    
Moisture  
Dew Point 39 °F    
Average Humidity 79    
Maximum Humidity 93    
Minimum Humidity 62    
Precipitation  
Precipitation 0.00 in - - ()
Sea Level Pressure  
Sea Level Pressure 29.74 in    
Wind  
Wind Speed 7 mph (SSE)    
Max Wind Speed 18 mph    
Max Gust Speed -    
Visibility 10 miles    
Events Rain    
Averages and records for this station are not official NWS values.
T = Trace of Precipitation, MM = Missing Value Source: NWS Daily Summary

Daily Weather History Graph

Daily Weather History Graph

Search for Another Location

Airport or City:

Trip Planner

Search our weather history database for the weather conditions in past years. The results will help you decide how hot, cold, wet, or windy it might be!

Date:

Astronomy

Oct. 15, 2012 Rise Set
Actual Time 7:41 AM CDT 6:28 PM CDT
Civil Twilight 7:09 AM CDT 7:00 PM CDT
Nautical Twilight 6:32 AM CDT 7:37 PM CDT
Astronomical Twilight 5:55 AM CDT 8:14 PM CDT
Moon 7:58 AM CDT (10/15) 6:20 PM CDT (10/15)
Length of Visible Light 11h 51m
Length of Day
10h 46m
New Moon, 0% of the Moon is Illuminated
Oct 15
New Moon
Oct 21
First Quarter
Oct 29
Full
Nov 6
Last Quarter
Nov 13
New

Hourly Weather History & Observations

Time (CDT) Temp. Windchill Dew Point Humidity Pressure Visibility Wind Dir Wind Speed Gust Speed Precip Events Conditions
12:13 AM 39.2 °F 37.0 °F 33.8 °F 81% 29.87 in 10.0 mi NNW 3.5 mph - N/A   Clear
12:53 AM 39.2 °F - 35.6 °F 87% 29.87 in 10.0 mi Calm Calm - N/A   Clear
1:13 AM 39.2 °F 37.0 °F 33.8 °F 81% 29.87 in 10.0 mi WNW 3.5 mph - N/A   Clear
1:34 AM 37.4 °F 33.8 °F 33.8 °F 87% 29.87 in 10.0 mi WNW 4.6 mph - N/A   Clear
1:53 AM 37.4 °F 34.9 °F 33.8 °F 87% 29.87 in 10.0 mi WNW 3.5 mph - N/A   Clear
2:13 AM 37.4 °F - 33.8 °F 87% 29.87 in 10.0 mi Calm Calm - N/A   Clear
2:53 AM 37.4 °F - 33.8 °F 87% 29.86 in 10.0 mi Calm Calm - N/A   Clear
3:14 AM 37.4 °F - 33.8 °F 87% 29.86 in 10.0 mi Calm Calm - N/A   Clear
3:33 AM 39.2 °F - 35.6 °F 87% 29.86 in 10.0 mi Calm Calm - N/A   Scattered Clouds
3:53 AM 39.2 °F - 35.6 °F 87% 29.86 in 10.0 mi Calm Calm - N/A   Overcast
4:14 AM 39.2 °F - 35.6 °F 87% 29.86 in 10.0 mi Calm Calm - N/A   Overcast
4:53 AM 39.2 °F - 37.4 °F 93% 29.85 in 10.0 mi Calm Calm - N/A   Overcast
5:14 AM 42.8 °F 40.1 °F 39.2 °F 87% 29.85 in 10.0 mi SSE 4.6 mph - N/A   Scattered Clouds
5:53 AM 39.2 °F - 37.4 °F 93% 29.85 in 10.0 mi Calm Calm - N/A   Clear
6:14 AM 41.0 °F 38.0 °F 39.2 °F 93% 29.83 in 10.0 mi SSE 4.6 mph - N/A   Clear
6:33 AM 42.8 °F 37.5 °F 41.0 °F 93% 29.84 in 10.0 mi SSE 9.2 mph - N/A   Clear
7:14 AM 41.0 °F 38.0 °F 39.2 °F 93% 29.84 in 10.0 mi South 4.6 mph - N/A   Scattered Clouds
7:33 AM 39.2 °F 35.9 °F 37.4 °F 93% 29.85 in 10.0 mi SSW 4.6 mph - N/A   Clear
7:53 AM 41.0 °F 38.0 °F 39.2 °F 93% 29.85 in 10.0 mi South 4.6 mph - N/A   Clear
8:14 AM 42.8 °F 40.1 °F 39.2 °F 87% 29.83 in 10.0 mi South 4.6 mph - N/A   Clear
8:33 AM 42.8 °F 39.3 °F 39.2 °F 87% 29.85 in 10.0 mi SSW 5.8 mph - N/A   Clear
8:53 AM 42.8 °F 38.0 °F 37.4 °F 81% 29.85 in 10.0 mi South 8.1 mph - N/A   Clear
9:13 AM 44.6 °F 38.4 °F 39.2 °F 81% 29.84 in 10.0 mi South 12.7 mph - N/A   Clear
9:33 AM 44.6 °F 39.2 °F 39.2 °F 81% 29.84 in 10.0 mi South 10.4 mph - N/A   Clear
9:54 AM 44.6 °F 38.1 °F 37.4 °F 76% 29.84 in 10.0 mi South 13.8 mph - N/A   Clear
10:13 AM 44.6 °F 38.1 °F 39.2 °F 81% 29.83 in 10.0 mi South 13.8 mph - N/A   Clear
10:33 AM 44.6 °F 37.8 °F 37.4 °F 76% 29.83 in 10.0 mi South 15.0 mph - N/A   Clear
10:53 AM 44.6 °F 38.1 °F 37.4 °F 76% 29.82 in 10.0 mi South 13.8 mph - N/A   Clear
11:13 AM 44.6 °F 38.4 °F 37.4 °F 76% 29.82 in 10.0 mi South 12.7 mph - N/A   Clear
11:53 AM 44.6 °F 38.4 °F 39.2 °F 81% 29.81 in 10.0 mi SSE 12.7 mph - N/A   Clear
12:14 PM 44.6 °F 38.4 °F 39.2 °F 81% 29.80 in 10.0 mi SSE 12.7 mph - N/A   Clear
12:33 PM 44.6 °F 38.4 °F 39.2 °F 81% 29.79 in 10.0 mi SSE 12.7 mph - N/A   Clear
1:13 PM 46.4 °F 40.4 °F 39.2 °F 76% 29.76 in 10.0 mi SSE 13.8 mph - N/A   Clear
1:34 PM 46.4 °F 40.7 °F 39.2 °F 76% 29.75 in 10.0 mi SSE 12.7 mph - N/A   Clear
1:53 PM 48.2 °F - 39.2 °F 71% 29.75 in 10.0 mi SSE 12.7 mph - N/A   Clear
2:33 PM 48.2 °F - 41.0 °F 76% 29.73 in 10.0 mi SSE 13.8 mph - N/A   Scattered Clouds
2:54 PM 48.2 °F - 39.2 °F 71% 29.73 in 10.0 mi SSE 13.8 mph - N/A   Scattered Clouds
3:13 PM 48.2 °F - 41.0 °F 76% 29.71 in 10.0 mi SSE 15.0 mph - N/A Rain Light Rain
3:33 PM 48.2 °F - 41.0 °F 76% 29.70 in 10.0 mi SSE 12.7 mph - N/A   Mostly Cloudy
3:54 PM 48.2 °F - 41.0 °F 76% 29.69 in 10.0 mi SSE 13.8 mph - N/A   Overcast
4:13 PM 48.2 °F - 41.0 °F 76% 29.69 in 10.0 mi SSE 13.8 mph - N/A   Overcast
4:33 PM 48.2 °F - 41.0 °F 76% 29.69 in 10.0 mi SSE 15.0 mph - N/A   Overcast
4:54 PM 48.2 °F - 41.0 °F 76% 29.68 in 10.0 mi SSE 13.8 mph - N/A Rain Light Rain
5:13 PM 50.0 °F - 41.0 °F 71% 29.67 in 10.0 mi SE 8.1 mph - N/A   Light Drizzle
5:33 PM 51.8 °F - 39.2 °F 62% 29.66 in 10.0 mi SE 8.1 mph - N/A Rain Light Rain
5:53 PM 50.0 °F - 41.0 °F 71% 29.64 in 10.0 mi SE 11.5 mph - N/A   Overcast
6:13 PM 51.8 °F - 41.0 °F 67% 29.63 in 10.0 mi SE 11.5 mph - N/A   Overcast
6:34 PM 51.8 °F - 39.2 °F 62% 29.63 in 10.0 mi SE 5.8 mph - N/A   Overcast
6:53 PM 51.8 °F - 39.2 °F 62% 29.63 in 10.0 mi SE 8.1 mph - N/A   Overcast
7:13 PM 51.8 °F - 39.2 °F 62% 29.61 in 10.0 mi SE 16.1 mph - N/A   Scattered Clouds
7:34 PM 51.8 °F - 41.0 °F 67% 29.61 in 10.0 mi SSE 17.3 mph - N/A   Scattered Clouds
7:53 PM 48.2 °F - 41.0 °F 76% 29.61 in 10.0 mi SSE 13.8 mph - N/A   Scattered Clouds
8:13 PM 48.2 °F - 41.0 °F 76% 29.61 in 10.0 mi SSE 16.1 mph - N/A   Scattered Clouds
8:34 PM 48.2 °F - 41.0 °F 76% 29.61 in 10.0 mi SSE 16.1 mph - N/A   Clear
8:53 PM 48.2 °F - 41.0 °F 76% 29.60 in 10.0 mi SSE 16.1 mph - N/A   Clear
9:13 PM 48.2 °F - 41.0 °F 76% 29.59 in 10.0 mi SSE 18.4 mph - N/A   Mostly Cloudy
9:34 PM 50.0 °F - 39.2 °F 66% 29.58 in 10.0 mi SSE 17.3 mph - N/A   Overcast
9:53 PM 50.0 °F - 39.2 °F 66% 29.58 in 10.0 mi SSE 18.4 mph - N/A   Overcast
10:13 PM 50.0 °F - 39.2 °F 66% 29.57 in 10.0 mi SSE 18.4 mph - N/A   Overcast
10:34 PM 48.2 °F - 39.2 °F 71% 29.56 in 10.0 mi SSE 17.3 mph - N/A   Scattered Clouds
10:53 PM 48.2 °F - 41.0 °F 76% 29.55 in 10.0 mi SSE 16.1 mph - N/A   Clear
11:13 PM 48.2 °F - 41.0 °F 76% 29.54 in 10.0 mi SSE 15.0 mph - N/A   Clear
11:34 PM 48.2 °F - 41.0 °F 76% 29.53 in 10.0 mi SSE 15.0 mph - N/A   Clear
11:54 PM 48.2 °F - 39.2 °F 71% 29.53 in 10.0 mi SSE 15.0 mph - N/A   Clear